User: anonymous   Login
Location: Godiavel Galaoual
(15.2485°N, 12.6604°W)
Time: 06:06:13
(UTC+00:00)
Language:

VELOX 1 - Orbit

View from above orbital plane
View from above orbital plane
View from above satellite
View from above satellite

Ground track
Ground track

The orbit data is extracted from the following two-line orbital elements,

1 40057U 14034E   21209.82492371  .00000467  00000-0  72078-4 0  9993
2 40057  98.3325   5.3675 0009580 287.7148  72.3018 14.78219738381657
Epoch (UTC): 28 July 2021 19:47:53
Eccentricity: 0.0009580
inclination: 98.3325°
perigee height: 628 km
apogee height: 641 km
right ascension of ascending node: 5.3675°
argument of perigee: 287.7148°
revolutions per day: 14.78219738
mean anomaly at epoch: 72.3018°
orbit number at epoch: 38165

The dashed part of the orbit path shows where the satellite is in the earth's shadow,  

DLR